Simultaneous Nadir Overpasses (SNOs) Predictions

Prediction of SNOs between NOAA-19 and TERRA Satellite Orbit:

Table of predicted SNOs for the next 14.0 days since TLE Epoch: 2/27/2016
Index Date (NOAA-19) Time (NOAA-19) Lat,Lon (NOAA-19) SZA (NOAA-19 ) Date (TERRA) Time (TERRA) Lat,Lon (TERRA) SZA (TERRA ) Distance(km) Time Diff (sec)
1 02/29/2016 08:04:07 73.26, 64.99 80.95 02/29/2016 08:04:25 73.26, 64.91 80.94 2.75 18
2 02/29/2016 08:55:00 -73.18,-127.54 99.15 02/29/2016 08:53:54 -73.18,-127.61 99.16 2.31 66
3 03/02/2016 12:47:23 73.68, -6.74 80.52 03/02/2016 12:48:33 73.59, -5.47 80.44 41.14 70
4 03/02/2016 13:38:09 -73.25, 161.55 99.92 03/02/2016 13:38:07 -73.25, 161.46 99.92 3.05 2
5 03/04/2016 18:21:18 -73.38, 90.53 100.64 03/04/2016 18:22:18 -73.36, 90.63 100.65 3.53 60
6 03/04/2016 19:12:23 73.26,-101.99 79.24 03/04/2016 19:11:45 73.27,-101.91 79.25 2.67 38
7 03/06/2016 23:55:31 73.30,-172.81 78.43 03/06/2016 23:55:58 73.32,-172.87 78.45 3.12 27
8 03/07/2016 00:46:25 -73.25, -5.41 101.64 03/07/2016 00:45:27 -73.26, -5.37 101.64 1.66 58
9 03/09/2016 04:38:54 74.08, 114.54 78.33 03/09/2016 04:39:59 73.99, 117.51 78.30 91.29 65
10 03/09/2016 05:29:34 -73.33, -76.34 102.42 03/09/2016 05:29:40 -73.30, -76.34 102.44 2.81 6
11 03/09/2016 06:20:25 72.54, 92.64 76.82 03/09/2016 06:19:19 72.57, 89.87 76.79 92.39 66
12 03/11/2016 10:12:43 -73.41,-147.27 103.20 03/11/2016 10:13:52 -73.39,-147.21 103.21 2.57 69
13 03/11/2016 11:03:47 73.29, 20.25
